Location: San Antonio
(29.4240°N, 98.4930°W)
Time: 21:28:44
(UTC-05:00)

Hubble Space Telescope - Pass Details

Date: 23 June 2024
Orbit: 510 x 513 km, 28.5° (Epoch: 18 July)

Event Time Altitude Azimuth Distance (km) Brightness Sun altitude
Exits shadow 05:29:19 - 181° (S) 1,833 3.1 -13.0°
Reaches altitude 10° 05:30:06 10° 171° (S) 1,712 3.1 -12.9°
Maximum altitude 05:31:20 11° 153° (SSE) 1,637 3.1 -12.7°
Drops below altitude 10° 05:32:33 10° 135° (SE) 1,713 3.5 -12.5°
Sets 05:36:16 0° 99° (E) 2,599 5.0 -11.8°
